Terug naar catalogus

QUICK3

ActiefWetenschapSSO
NORAD 64558·PAYLOAD·🇱🇹 Lithuania

Gelanceerd Jun 23, 2025 vanaf Vandenberg Space Force Base

Loading…

Volgende Passages (komende 24 uur)

TLE

VersSource: Space-Track

Epoch: Sep 14, 2026, 13:15 UTC

1 64558U 25135AG  26257.55258600  .00011053  00000-0  39268-3 0  9998
2 64558  97.4823  14.3763 0004602 191.4191 168.6945 15.29184751 68506

Volg QUICK3 in realtime met AllMySat

Download on the App Store